Location: Colconda
(10.2500°N, 61.4333°W)
Time: 00:25:05
(UTC+00:00)

Daily predictions for brighter satellites

Satellite Brightness Start Highest point End
(mag) Time Altitude Azimuth Time Altitude Azimuth Time Altitude Azimuth
Iridium 4 Rocket 4.3 00:01:50 10° N 00:04:21 33° N 00:04:21 33° N
Cosmos 2227 Rocket 2.4 00:03:01 10° NNW 00:08:37 68° WSW 00:09:47 53° SSW
ALOS 3.1 00:17:43 49° W 00:17:43 49° W 00:21:49 10° NNW
Hubble Space Telescope 2.7 00:14:54 10° WNW 00:16:56 28° NW 00:16:56 28° NW
Cosmos 2297 Rocket 2.5 00:17:43 10° NNW 00:22:27 61° NW 00:22:27 61° NW
Cosmos 2082 4.4 00:20:42 10° NNW 00:26:03 47° WSW 00:26:32 46° WSW
Centaur AC-72 4.2 06:46:00 63° ESE 06:46:00 63° ESE 07:09:26 10° ENE
USA 229 DEB 4.4 07:28:42 47° ESE 07:29:00 48° ESE 07:35:34 10° NE
USA 229 4.4 07:28:44 47° ESE 07:29:05 47° ESE 07:35:39 10° NE
Centaur D-1A AC-35 3.8 07:37:20 68° SW 07:38:46 85° SSE 07:43:44 10° ENE
Meteor 2-10 Rocket 3.7 07:59:36 75° SSE 08:00:04 82° E 08:05:51 10° N
Cosmos 1850 Rocket 4.1 08:01:34 72° ESE 08:01:38 72° ESE 08:06:53 10° NNE
SeaSat 1 4.3 08:03:27 10° SE 08:07:41 29° ENE 08:11:54 10° N
Okean 2 Rocket 3.3 08:05:28 10° N 08:09:33 67° NE 08:09:33 67° NE
SWIFT 3.2 08:11:01 44° NNE 08:11:01 44° NNE 08:14:18 10° ENE
ISS -1.0 08:13:45 22° ESE 08:13:45 22° ESE 08:16:03 10° ENE
ADEOS II 2.0 08:09:14 10° NNE 08:14:29 88° E 08:16:08 46° S
SL-8 R/B 4.5 08:19:23 38° NNW 08:19:23 38° NNW 08:23:05 10° NNE
Cosmos 2181 Rocket 4.0 08:18:38 40° SSW 08:20:56 63° W 08:27:17 10° N
Cosmos 1140 Rocket 4.3 08:23:08 33° NW 08:23:08 33° NW 08:26:26 10° N
Meteor PRIRODA 4.2 08:21:41 10° N 08:24:32 50° N 08:24:32 50° N
Ariane 42P Rocket 4.4 08:27:51 16° S 08:28:55 18° SSE 08:33:46 10° ESE
Cosmos 614 Rocket 4.1 08:33:20 46° WSW 08:34:04 50° WNW 08:38:59 10° N
Cosmos 2082 Rocket 2.6 08:40:20 34° WSW 08:41:48 40° WNW 08:47:07 10° N
Feng Yun 1-1 Rocket 4.5 08:37:29 10° N 08:42:38 45° WNW 08:45:36 24° SW
Cosmos 1606 2.6 08:39:43 15° S 08:42:55 85° W 08:46:50 10° N
Ariane H10 3.3 08:43:20 28° SSW 08:43:23 28° SSW 08:46:02 10° SE
Cosmos 1741 Rocket 4.5 08:42:31 35° W 08:43:24 37° WNW 08:48:12 10° N
ADEOS Rocket 3.8 08:36:56 10° N 08:44:06 44° WNW 08:49:55 14° SW
Meteor 1-27 Rocket 3.8 08:40:03 10° S 08:45:41 78° E 08:51:13 10° N
Meteor 1-14 Rocket 4.3 08:40:09 10° NNW 08:46:01 63° W 08:51:55 10° S
CZ-4B R/B 3.9 08:43:45 10° N 08:48:06 71° WNW 08:52:15 10° SSW
Cosmos 1833 Rocket 3.0 08:46:10 26° SW 08:48:50 44° WNW 08:54:09 10° N
USA 116 4.4 08:45:10 10° SSE 08:49:33 73° ENE 08:54:29 10° N
Meteor 1-10 Rocket 4.5 08:44:14 11° SSW 08:49:44 48° W 08:55:18 10° N
Cosmos 2154 Rocket 4.3 08:45:49 10° NNW 08:51:46 43° W 08:57:43 10° SSW
CZ-3 Stage 3 3.5 08:52:04 23° WSW 08:52:26 23° WSW 08:55:41 10° S
Ariane 42L Rocket 3.9 08:52:54 19° SSW 08:54:36 26° SSE 09:01:49 10° ESE
Cosmos 1782 3.7 08:54:56 28° W 08:54:57 28° W 08:58:26 10° NNW
Abrixas 2.7 08:53:41 30° SSW 08:55:01 69° SE 08:58:04 10° NE
Cosmos 1975 Rocket 4.2 08:51:02 10° SSE 08:55:08 44° E 08:59:14 10° NNE
COBE Rocket 3.8 08:50:51 10° N 08:55:53 84° WNW 09:00:46 10° SSW
Ariane H10+ 4.1 08:53:39 10° SSW 08:57:29 20° SSE 09:05:23 10° ESE
Ariane Rocket 3.1 08:54:24 10° NNE 08:59:28 78° ESE 09:04:34 10° S
ARIANE 5 R/B 4.3 09:00:26 16° SW 09:02:21 20° S 09:05:22 10° SE
Cosmos 1656 Rocket 4.3 08:58:23 10° NW 09:03:00 29° WSW 09:07:40 10° SSW
ARIANE 5 R/B 3.6 09:01:55 15° SW 09:03:11 17° SSW 09:05:08 10° SSE
Okean-O 4.4 09:09:36 10° NW 09:11:36 13° WNW 09:11:36 13° WNW
Cosmos 1238 Rocket 2.2 09:09:01 10° S 09:12:00 84° E 09:15:20 10° N
BREEZE-M DEB (TANK) 2.3 09:10:37 16° SW 09:12:05 76° SE 09:17:21 10° NE
CZ-4 R/B 4.2 09:09:20 10° NE 09:12:07 19° E 09:14:56 10° SSE
SL-8 Rocket 4.0 09:07:44 10° N 09:13:56 71° W 09:20:12 10° S
Cosmos 1486 Rocket 4.4 09:08:57 10° S 09:14:14 70° ESE 09:19:32 10° NNE
Thor Agena Rocket 4.4 09:14:22 10° SSW 09:18:36 26° W 09:22:52 10° NW
CZ-3 R/B 2.5 08:57:09 10° WNW 09:21:17 81° SSW 09:26:46 10° SE
Cosmos 2151 Rocket 4.4 09:20:25 10° NW 09:24:09 28° W 09:27:55 10° SSW
ARIANE 3 DEB 3.3 09:21:43 11° WSW 09:24:53 29° S 09:27:03 10° ESE
Skynet4D Del rocket 4.4 09:19:02 10° WNW 09:26:56 64° SSW 09:33:56 10° SE
Cosmos 1242 Rocket 3.7 09:25:36 10° SW 09:28:32 23° W 09:31:29 10° NNW
CSL-04 Rocket 3.7 09:30:53 10° N 09:36:04 58° WNW 09:41:14 10° SSW
NOSS 3-1 (A) 3.3 09:32:07 10° SW 09:37:41 60° WNW 09:43:29 10° NNE
